Weather History for KGCN - January, 2015

Change the Weather History Date:

Saturday, January 10, 2015

  Actual Average Record
Temperature  
Mean Temperature 32 °F -  
Max Temperature 41 °F 42 °F 60 °F (1990)
Min Temperature 24 °F 15 °F -3 °F (1977)
Degree Days  
Heating Degree Days 32    
Moisture  
Dew Point 34 °F    
Average Humidity 93    
Maximum Humidity 100    
Minimum Humidity 82    
Precipitation  
Precipitation 0.10 in - - ()
Sea Level Pressure  
Sea Level Pressure 30.11 in    
Wind  
Wind Speed 2 mph (SW)    
Max Wind Speed 9 mph    
Max Gust Speed -    
Visibility 7 miles    
Events Fog , Rain    
Averages and records for this station are not official NWS values.
T = Trace of Precipitation, MM = Missing Value Source: NWS Daily Summary

Daily Weather History Graph

Daily Weather History Graph

Search for Another Location

Airport or City:

Trip Planner

Search our weather history database for the weather conditions in past years. The results will help you decide how hot, cold, wet, or windy it might be!

Date:

Astronomy

Jan. 10, 2015 Rise Set
Actual Time 7:39 AM MST 5:33 PM MST
Civil Twilight 7:11 AM MST 6:01 PM MST
Nautical Twilight 6:39 AM MST 6:32 PM MST
Astronomical Twilight 6:08 AM MST 7:03 PM MST
Moon 10:54 PM MST (1/10) 10:37 AM MST (1/10)
Length of Visible Light 10h 50m
Length of Day
9h 53m
Waning Gibbous, 74% of the Moon is Illuminated
Jan 10
Waning Gibbous
Jan 13
Last Quarter
Jan 20
New
Jan 26
First Quarter
Feb 3
Full

Hourly Weather History & Observations

Time (MST) Temp. Windchill Dew Point Humidity Pressure Visibility Wind Dir Wind Speed Gust Speed Precip Events Conditions
12:54 AM 27.0 °F - 24.1 °F 89% 30.08 in 10.0 mi Calm Calm - N/A   Overcast
1:54 AM 26.1 °F - 23.0 °F 88% 30.09 in 10.0 mi Calm Calm - N/A   Partly Cloudy
2:54 AM 24.1 °F - 23.0 °F 96% 30.09 in 10.0 mi Calm Calm - N/A   Clear
3:54 AM 24.1 °F - 21.9 °F 91% 30.08 in 10.0 mi Calm Calm - N/A   Mostly Cloudy
4:54 AM 25.0 °F - 21.9 °F 88% 30.08 in 10.0 mi Calm Calm - N/A   Mostly Cloudy
5:54 AM 28.0 °F - 26.1 °F 92% 30.11 in 10.0 mi Calm Calm - N/A   Overcast
6:54 AM 30.0 °F - 28.0 °F 92% 30.13 in 10.0 mi Calm Calm - N/A   Overcast
7:54 AM 30.0 °F - 28.9 °F 96% 30.15 in 10.0 mi Calm Calm - N/A   Overcast
8:54 AM 33.1 °F - 30.0 °F 89% 30.16 in 10.0 mi Calm Calm - N/A   Mostly Cloudy
9:54 AM 39.0 °F - 35.1 °F 86% 30.16 in 10.0 mi Calm Calm - N/A   Overcast
10:26 AM 39.9 °F 35.8 °F 36.0 °F 86% 30.18 in 10.0 mi SW 5.8 mph - N/A   Overcast
10:54 AM 39.9 °F 33.9 °F 36.0 °F 86% 30.16 in 10.0 mi SSW 9.2 mph - N/A   Overcast
10:57 AM 41.0 °F 35.8 °F 36.0 °F 82% 30.17 in 10.0 mi SSW 8.1 mph - N/A   Overcast
11:40 AM 41.0 °F 35.8 °F 36.0 °F 82% 30.15 in 10.0 mi SW 8.1 mph - 0.00 in   Overcast
11:54 AM 41.0 °F 35.2 °F 36.0 °F 82% 30.13 in 10.0 mi SW 9.2 mph - 0.00 in Rain Light Rain
12:26 PM 37.9 °F 33.5 °F 37.0 °F 97% 30.13 in 2.5 mi WSW 5.8 mph - 0.03 in Rain Rain
12:54 PM 37.9 °F 33.5 °F 37.0 °F 97% 30.10 in 6.0 mi WSW 5.8 mph - 0.05 in Rain Light Rain
1:54 PM 37.9 °F - 36.0 °F 93% 30.09 in 6.0 mi Calm Calm - 0.03 in Rain Light Rain
2:29 PM 39.0 °F 35.7 °F 37.0 °F 93% 30.09 in 8.0 mi SW 4.6 mph - 0.00 in Rain Light Rain
2:54 PM 39.0 °F 34.8 °F 37.0 °F 93% 30.08 in 10.0 mi SSW 5.8 mph - 0.00 in Rain Light Rain
3:54 PM 39.9 °F 35.8 °F 37.9 °F 93% 30.09 in 10.0 mi WSW 5.8 mph - 0.00 in   Overcast
4:52 PM 39.2 °F 37.0 °F 37.4 °F 93% 30.10 in 10.0 mi WSW 3.5 mph - N/A   Overcast
4:54 PM 39.0 °F 36.8 °F 37.0 °F 93% 30.10 in 10.0 mi WSW 3.5 mph - N/A   Overcast
5:54 PM 39.0 °F - 37.9 °F 96% 30.09 in 9.0 mi Calm Calm - 0.01 in Rain Light Rain
6:54 PM 37.9 °F - 37.0 °F 97% 30.09 in 5.0 mi Calm Calm - 0.00 in Rain Light Rain
7:05 PM 37.9 °F - 37.0 °F 97% 30.12 in 8.0 mi Calm Calm - 0.01 in Rain Light Rain
7:44 PM 37.9 °F - 37.9 °F 100% 30.12 in 7.0 mi Calm Calm - 0.01 in   Overcast
7:54 PM 37.9 °F 35.5 °F 37.0 °F 97% 30.10 in 9.0 mi SSW 3.5 mph - 0.01 in   Overcast
8:42 PM 37.9 °F 34.4 °F 37.9 °F 100% 30.13 in 1.8 mi WSW 4.6 mph - N/A   Overcast
8:50 PM 37.4 °F - 37.4 °F 100% 30.13 in 0.8 mi Calm Calm - N/A   Mist
8:54 PM 37.9 °F 35.5 °F 37.9 °F 100% 30.09 in 0.8 mi West 3.5 mph - N/A   Mist
9:20 PM 37.9 °F 34.4 °F 37.9 °F 100% 30.13 in 0.2 mi WSW 4.6 mph - N/A Fog Fog
9:27 PM 37.9 °F 34.4 °F 37.9 °F 100% 30.13 in 0.2 mi SW 4.6 mph - N/A Fog Fog
9:54 PM 37.9 °F 34.4 °F 37.9 °F 100% 30.07 in 0.2 mi SW 4.6 mph - N/A Fog Fog
10:54 PM 37.0 °F 33.3 °F 37.0 °F 100% 30.07 in 0.2 mi SSW 4.6 mph - N/A Fog Fog
11:54 PM 36.0 °F - 36.0 °F 100% 30.06 in 0.2 mi Calm Calm - N/A Fog Fog